Weather History for Hurlburt Field, FL

Change the Weather History Date:

Saturday, December 8, 2012

  Actual Average Record
Temperature  
Mean Temperature 52 °F -  
Max Temperature 73 °F 63 °F 80 °F (1998)
Min Temperature 32 °F 44 °F 25 °F (2006)
Degree Days  
Heating Degree Days 12    
Growing Degree Days 2 (Base 50)    
Moisture  
Dew Point 63 °F    
Average Humidity 97    
Maximum Humidity 100    
Minimum Humidity 83    
Precipitation  
Precipitation 0.01 in - - ()
Sea Level Pressure  
Sea Level Pressure 29.98 in    
Wind  
Wind Speed 5 mph (ENE)    
Max Wind Speed 9 mph    
Max Gust Speed -    
Visibility 8 miles    
Events Rain    
Averages and records for this station are not official NWS values.
T = Trace of Precipitation, MM = Missing Value Source: NWS Daily Summary

Daily Weather History Graph

Daily Weather History Graph

Search for Another Location

Airport:

Trip Planner

Search our weather history database for the weather conditions in past years. The results will help you decide how hot, cold, wet, or windy it might be!

Date:

Astronomy

Dec. 08, 2012 Rise Set
Actual Time 6:31 AM CST 4:46 PM CST
Civil Twilight 6:05 AM CST 5:12 PM CST
Nautical Twilight 5:35 AM CST 5:42 PM CST
Astronomical Twilight 5:06 AM CST 6:11 PM CST
Moon 1:13 AM CST (12/8) 1:00 PM CST (12/8)
Length of Visible Light 11h 07m
Length of Day
10h 14m
Waning Crescent, 28% of the Moon is Illuminated
Dec 8
Waning Crescent
Dec 13
New
Dec 19
First Quarter
Dec 28
Full
Jan 4
Last Quarter

Hourly Weather History & Observations

Time (CST) Temp. Dew Point Humidity Pressure Visibility Wind Dir Wind Speed Gust Speed Precip Events Conditions
12:55 AM 64.4 °F 63.5 °F 97% 29.96 in 10.0 mi East 6.9 mph - N/A   Partly Cloudy
1:55 AM 64.8 °F 63.5 °F 96% 29.96 in 10.0 mi East 9.2 mph - N/A   Scattered Clouds
2:38 AM 64.4 °F 64.4 °F 100% 29.96 in 10.0 mi East 6.9 mph - N/A   Mostly Cloudy
2:48 AM 64.4 °F 64.4 °F 100% 29.95 in 10.0 mi East 6.9 mph - N/A   Scattered Clouds
2:55 AM 64.6 °F 63.3 °F 96% 29.95 in 10.0 mi East 5.8 mph - N/A   Scattered Clouds
3:28 AM 64.4 °F 62.6 °F 94% 29.95 in 10.0 mi East 4.6 mph - N/A   Mostly Cloudy
3:55 AM 64.0 °F 63.5 °F 98% 29.95 in 10.0 mi ENE 5.8 mph - N/A   Overcast
4:07 AM 64.4 °F 62.6 °F 94% 29.95 in 10.0 mi ENE 6.9 mph - N/A   Scattered Clouds
4:55 AM 63.1 °F 62.8 °F 99% 29.95 in 10.0 mi ENE 6.9 mph - N/A   Scattered Clouds
5:43 AM 62.6 °F 62.6 °F 100% 29.96 in 10.0 mi ENE 4.6 mph - N/A Rain Light Rain
5:55 AM 63.1 °F 62.8 °F 99% 29.97 in 10.0 mi ENE 4.6 mph - 0.00 in   Light Drizzle
5:57 AM 62.6 °F 62.6 °F 100% 29.97 in 10.0 mi ENE 4.6 mph - N/A   Mostly Cloudy
6:18 AM 62.6 °F 62.6 °F 100% 29.98 in 10.0 mi Calm Calm - N/A   Scattered Clouds
6:26 AM 62.6 °F 62.6 °F 100% 29.99 in 10.0 mi NE 3.5 mph - N/A   Mostly Cloudy
6:27 AM 62.6 °F 62.6 °F 100% 29.99 in 10.0 mi NNE 3.5 mph - N/A   Mostly Cloudy
6:55 AM 63.1 °F 62.8 °F 99% 29.99 in 10.0 mi ENE 3.5 mph - 0.00 in   Overcast
7:03 AM 62.6 °F 62.6 °F 100% 30.00 in 10.0 mi ENE 3.5 mph - N/A Rain Light Rain
7:14 AM 62.6 °F 62.6 °F 100% 30.00 in 4.0 mi ENE 4.6 mph - N/A Rain Light Rain
7:55 AM 63.1 °F 63.1 °F 100% 30.01 in 9.0 mi NE 3.5 mph - 0.01 in   Overcast
8:36 AM 64.4 °F 64.4 °F 100% 30.02 in 10.0 mi Variable 3.5 mph - N/A Rain Light Rain
8:55 AM 63.9 °F 63.9 °F 100% 30.02 in 10.0 mi ENE 8.1 mph - 0.00 in   Light Drizzle
9:55 AM 66.6 °F 66.6 °F 100% 30.02 in 10.0 mi East 8.1 mph - 0.00 in   Light Drizzle
11:16 AM 32.0 °F 30.2 °F 93% 30.01 in - North - - 0.00 in   Unknown
11:35 AM 73.4 °F 68.0 °F 83% 29.97 in 10.0 mi ESE 5.8 mph - N/A   Mostly Cloudy
11:57 AM 72.9 °F 68.4 °F 86% 29.98 in 10.0 mi Variable 4.6 mph - 0.00 in   Scattered Clouds
12:59 PM 73.4 °F 69.1 °F 86% 29.96 in 10.0 mi SSE 6.9 mph - N/A   Scattered Clouds
1:55 PM 73.2 °F 69.1 °F 87% 29.95 in 10.0 mi Variable 6.9 mph - N/A   Scattered Clouds
2:55 PM 73.0 °F 68.7 °F 86% 29.95 in - South 6.9 mph - N/A   Scattered Clouds
3:55 PM 71.4 °F 67.5 °F 87% 29.96 in 10.0 mi South 4.6 mph - N/A   Scattered Clouds
4:55 PM 68.9 °F 67.5 °F 95% 29.97 in 10.0 mi Calm Calm - 0.00 in   Mostly Cloudy
5:55 PM 67.5 °F 66.9 °F 98% 29.99 in 10.0 mi SSE 3.5 mph - 0.00 in   Scattered Clouds
7:41 PM 62.6 °F 62.6 °F 100% 29.99 in 6.0 mi Calm Calm - N/A   Partly Cloudy
7:55 PM 63.1 °F 63.1 °F 100% 30.01 in 6.0 mi Calm Calm - N/A   Partly Cloudy
8:55 PM 60.6 °F 60.6 °F 100% 30.02 in 10.0 mi Calm Calm - N/A   Clear
9:37 PM 59.0 °F 59.0 °F 100% 30.00 in 2.5 mi NNE 2.3 mph - N/A   Clear
9:45 PM 59.0 °F 59.0 °F 100% 30.01 in 5.0 mi Calm Calm - N/A   Clear
9:53 PM 59.0 °F 59.0 °F 100% 30.01 in 0.8 mi North 1.2 mph - N/A   Clear
9:55 PM 59.0 °F 59.0 °F 100% 30.02 in 5.0 mi North 1.2 mph - N/A   Partly Cloudy
10:07 PM 59.0 °F 59.0 °F 100% 30.01 in 5.0 mi North 2.3 mph - N/A   Partly Cloudy
10:19 PM 59.0 °F 59.0 °F 100% 30.01 in 5.0 mi NNE 2.3 mph - N/A   Scattered Clouds
10:55 PM 57.2 °F 57.2 °F 100% 30.01 in 4.0 mi North 1.2 mph - N/A   Scattered Clouds